TimeEDT,TemperatureF,Dew PointF,Humidity,Sea Level PressureIn,VisibilityMPH,Wind Direction,Wind SpeedMPH,Gust SpeedMPH,PrecipitationIn,Events,Conditions,WindDirDegrees,DateUTC
12:53 AM,39.9,23.0,51,29.81,10.0,West,6.9,-,N/A,,Clear,270,2013-03-26 04:53:00
1:53 AM,39.0,23.0,53,29.82,10.0,West,5.8,-,N/A,,Clear,280,2013-03-26 05:53:00
2:53 AM,37.9,23.0,55,29.83,10.0,West,3.5,-,N/A,,Mostly Cloudy,260,2013-03-26 06:53:00
3:53 AM,37.9,24.1,57,29.83,10.0,WSW,3.5,-,N/A,,Overcast,250,2013-03-26 07:53:00
4:53 AM,37.0,25.0,62,29.84,10.0,WSW,5.8,-,N/A,,Mostly Cloudy,240,2013-03-26 08:53:00
5:53 AM,36.0,24.1,62,29.86,10.0,WSW,5.8,-,N/A,,Clear,240,2013-03-26 09:53:00
6:53 AM,36.0,25.0,64,29.87,10.0,West,5.8,-,N/A,,Clear,270,2013-03-26 10:53:00
7:53 AM,37.0,26.1,65,29.88,10.0,WSW,6.9,-,N/A,,Clear,240,2013-03-26 11:53:00
8:53 AM,41.0,26.1,55,29.91,10.0,West,9.2,-,N/A,,Clear,270,2013-03-26 12:53:00
9:53 AM,45.0,26.1,48,29.91,10.0,NW,11.5,-,N/A,,Clear,310,2013-03-26 13:53:00
10:53 AM,48.0,26.1,42,29.92,10.0,NW,10.4,-,N/A,,Scattered Clouds,310,2013-03-26 14:53:00
11:53 AM,48.9,25.0,39,29.92,10.0,NNW,9.2,-,N/A,,Mostly Cloudy,330,2013-03-26 15:53:00
12:53 PM,48.9,24.1,38,29.92,10.0,NNW,8.1,-,N/A,,Overcast,330,2013-03-26 16:53:00
1:53 PM,48.9,25.0,39,29.92,10.0,NNW,6.9,-,N/A,,Overcast,340,2013-03-26 17:53:00
2:53 PM,48.9,26.1,41,29.92,10.0,NW,5.8,-,N/A,,Overcast,310,2013-03-26 18:53:00
3:53 PM,50.0,26.1,39,29.93,10.0,NW,9.2,-,N/A,,Overcast,310,2013-03-26 19:53:00
4:53 PM,48.9,27.0,43,29.94,10.0,WNW,12.7,-,N/A,,Overcast,300,2013-03-26 20:53:00
5:53 PM,48.0,27.0,44,29.96,10.0,West,6.9,-,N/A,,Overcast,280,2013-03-26 21:53:00
6:53 PM,48.0,27.0,44,29.98,10.0,NW,6.9,-,N/A,,Overcast,320,2013-03-26 22:53:00
7:53 PM,44.1,28.0,53,30.01,10.0,North,6.9,-,N/A,,Mostly Cloudy,350,2013-03-26 23:53:00
8:53 PM,42.1,30.9,65,30.04,10.0,Calm,Calm,-,N/A,,Overcast,0,2013-03-27 00:53:00
9:53 PM,43.0,30.9,62,30.06,10.0,WSW,4.6,-,N/A,,Overcast,250,2013-03-27 01:53:00
10:53 PM,43.0,27.0,53,30.07,10.0,WNW,5.8,-,N/A,,Partly Cloudy,290,2013-03-27 02:53:00
11:53 PM,41.0,25.0,53,30.09,10.0,WNW,9.2,-,N/A,,Clear,290,2013-03-27 03:53:00